Orbital Elements at Epoch 2459200.5 (2020-Dec-17.0) TDB
Reference: JPL 20 (heliocentric ecliptic J2000)
Element | Value | Uncertainty (1-sigma) | Units |
e | .0963119391155705 | 6.9944e-08 | |
a | 3.123475799139038 | 3.5841e-08 | au |
q | 2.822647788143401 | 2.1697e-07 | au |
i | 15.49020991365614 | 6.4879e-06 | deg |
node | 277.6692662126111 | 2.3608e-05 | deg |
peri | 251.6110025208265 | 4.3573e-05 | deg |
M | 173.2463611582885 | 4.1974e-05 | deg |
tp | 2458230.174900067823 (2018-Apr-21.67490007) | 0.000227 | TDB |
period | 2016.302297145659 5.52 | 3.4705e-05 9.502e-08 | d yr |
n | .1785446559822043 | 3.0731e-09 | deg/d |
Q | 3.424303810134675 | 3.9293e-08 | au |
|
| | Orbit Determination Parameters
Additional Information
|